Skip Page Navigation
NASA JPL Caltech
NASA Logo - Jet Propulsion Laboratory + View the NASA Portal
+ Center for Near-Earth Object Studies
JPL Home Earth Solar System Stars & Galaxies Technology
JPL Solar System Dynamics
BODIES ORBITS EPHEMERIDES TOOLS PHYSICAL DATA DISCOVERY FAQ SITE MAP
IMPORTANT: The SSD Announcement email list is now available. Major changes are coming in the near future, including possible hostname and/or URL changes. To be notified of such changes, subscribe to this email list.

Please visit this page for more details.


JPL Small-Body Database Browser
Search: [ help ]  
37484 (2174 T-1)
Classification: Main-belt Asteroid          SPK-ID: 2037484
Ephemeris | Orbit Diagram | Orbital Elements | Mission Design | Physical Parameters | Discovery Circumstances ]

[ show orbit diagram ]
Orbital Elements at Epoch 2459000.5 (2020-May-31.0) TDB
Reference: JPL 22 (heliocentric ecliptic J2000)
 Element Value Uncertainty (1-sigma)   Units 
e .1923248710667564 2.728e-08  
a 2.292601371901336 6.6266e-09 au
q 1.851677108642943 6.3596e-08 au
i 2.883899065496223 4.5004e-06 deg
node 175.2040840600723 6.2314e-05 deg
peri 276.8572306869362 6.3786e-05 deg
M 128.5069164760466 1.18e-05 deg
tp 2458547.899269209621
(2019-Mar-05.39926921)
4.1238e-05 TDB
period 1267.918237808681
3.47
5.4972e-06
1.505e-08
d
yr
n .2839299800767763 1.231e-09 deg/d
Q 2.73352563515973 7.9011e-09 au
  Orbit Determination Parameters
   # obs. used (total)      1137  
   data-arc span      17838 days (48.84 yr)  
   first obs. used      1971-03-24  
   last obs. used      2020-01-24  
   planetary ephem.      DE431  
   SB-pert. ephem.      SB431-N16  
   condition code      0  
   norm. resid. RMS      .5139  
   source      ORB  
   producer      Otto Matic  
   solution date      2020-Feb-23 04:32:42  

Additional Information
 Earth MOID = .870949 au 
 Jupiter MOID = 2.46219 au 
 T_jup = 3.571 
[ show covariance matrix ]

Ephemeris | Orbit Diagram | Orbital Elements | Mission Design | Physical Parameters | Discovery Circumstances ]

Physical Parameter Table
Parameter Symbol Value Units Sigma Reference Notes
absolute magnitude H 15.7   n/a MPO452692  

37484 (2174 T-1)          Discovered 1971-Mar-25 by van Houten, C. J., van Houten-Groeneveld, I., Gehrels, T. at Palomar
Reference: 20020227/Numbers.arcLast Updated: 2004-04-19

Alternate Designations
 2174 T-1 = 1999 GK6 
Ephemeris | Orbit Diagram | Orbital Elements | Mission Design | Physical Parameters | Discovery Circumstances ]
ABOUT SSD CREDITS/AWARDS PRIVACY/COPYRIGHT GLOSSARY LINKS
FirstGov 2020-Apr-02 19:49 UT
(server date/time)  
NASA Home Page
Site Manager:   Ryan S. Park
Webmaster  Alan B. Chamberlin